Vertical_Velocity
0 0 -0 3 2 1 2 1 0 0 -1 -1 -1 -1 -0 0 0 -0 1 1 0 0
-1 3 3 1 2 -0 -1 0 1 -1 -1 -1 -1 -1 0 1 2 0 2 2 -1 -2
-1 1 2 1 -1 0 1 0 -1 -0 -1 -2 -1 -1 -0 0 -1 -1 0 -1 -2 0
-6 2 2 1 -1 -3 -2 -1 -1 -0 0 0 1 0 0 -0 -1 0 -1 0 -1 1
0 -1 -2 -1 1 3 2 0 -0 -0 0 0 -0 -0 -0 0 0 -1 -0 1 -1 1
6 4 3 2 1 -0 0 1 0 -0 -1 -1 -1 -1 -1 -2 -0 1 0 1 0 2
-1 -1 1 -1 -3 -4 -4 -3 -3 -2 -2 -2 -1 -0 -1 -1 -0 1 2 1 1 2
1 -1 -1 -1 -1 -1 0 0 0 -1 -1 1 0 0 0 -1 -1 -0 0 1 0 -0
-1 0 -1 1 2 1 2 2 1 1 -1 0 1 -0 1 -0 -0 -0 -0 -1 1 1
1 1 1 0 0 1 -1 -1 1 1 -1 1 1 -1 -1 -2 0 -1 1 1 -1 -2
0 1 0 -1 -2 -1 -1 -2 -2 0 -1 -2 0 -1 -0 -1 0 -0 -1 0 2 -1
-2 -3 -2 -1 1 1 0 1 1 1 3 -3 2 3 2 2 1 1 1 1 2 1
-1 -0 0 -1 -1 1 -0 -2 -2 -1 -0 1 -0 -1 2 3 1 -3 -4 4 -2 1
2 1 1 -0 -1 -1 0 1 0 -2 3 2 1 2 -1 -2 -5 -4 -6 -3 -2 2
Height
1529 1531 1532 1534 1534 1535 1535 1535 1534 1532 1531 1530 1529 1528 1526 1525 1523 1522 1521 1521 1520 1519
1527 1528 1529 1530 1531 1531 1531 1530 1529 1528 1527 1526 1525 1524 1523 1521 1520 1518 1517 1516 1516 1515
1522 1525 1525 1526 1527 1527 1527 1526 1525 1524 1522 1521 1521 1520 1519 1517 1516 1515 1513 1512 1512 1511
1521 1523 1523 1523 1523 1523 1523 1522 1521 1519 1518 1518 1517 1515 1514 1512 1511 1510 1509 1508 1506 1506
1521 1519 1519 1519 1519 1519 1519 1518 1517 1516 1515 1514 1513 1511 1510 1509 1507 1505 1504 1503 1501 1500
1516 1515 1515 1515 1516 1516 1516 1515 1514 1513 1512 1510 1509 1508 1506 1504 1503 1501 1500 1498 1497 1496
1512 1512 1512 1512 1512 1512 1512 1511 1509 1508 1507 1505 1504 1503 1501 1500 1498 1497 1495 1493 1491 1490
1507 1507 1507 1508 1507 1507 1507 1506 1504 1503 1502 1500 1498 1497 1496 1495 1494 1492 1490 1489 1487 1485
1504 1504 1505 1505 1504 1504 1503 1501 1500 1499 1497 1496 1494 1493 1491 1489 1488 1487 1485 1482 1481 1480
1501 1501 1501 1501 1500 1500 1499 1497 1496 1494 1493 1492 1490 1488 1486 1486 1483 1481 1480 1478 1475 1473
1498 1498 1498 1497 1496 1496 1494 1492 1492 1490 1488 1487 1486 1485 1482 1481 1478 1476 1475 1473 1469 1466
1493 1494 1494 1494 1492 1491 1490 1488 1487 1486 1484 1482 1482 1481 1479 1476 1472 1469 1467 1467 1465 1461
1489 1489 1489 1488 1488 1486 1485 1484 1483 1482 1481 1478 1476 1476 1474 1470 1466 1463 1461 1459 1457 1456
1484 1483 1483 1482 1482 1481 1480 1478 1477 1475 1476 1473 1471 1470 1466 1464 1459 1456 1452 1449 1447 1445